Regional Weather Roundup
Issued by NWS State College, PA

Home | Current Version | Previous Version | Text Only | Print | Product List | Glossary Off
Versions: 1 2 3 4 5 6 7 8 9 10 11 12 13 14 15 16 17 18 19 20 21 22 23 24 25 26 27 28 29 30 31 32 33 34 35 36 37 38 39 40 41 42 43 44 45 46 47 48 49 50

000
ASUS41 KCTP 260210
RWRCTP

REGIONAL WEATHER ROUNDUP
NATIONAL WEATHER SERVICE STATE COLLEGE PA
1000 PM EDT SUN JUN 25 2017

Note: "fair" indicates few or no clouds below 12,000 feet with no
significant weather and/or obstructions to visibility.

* = STATION THAT DOES NOT REPORT PRECIPITATION /E.G. RAIN...SNOW...ETC/
    THUNDER OR FOG.

PAZ002>004-007>009-013>016-020>023-029>032-260300-
WESTERN PENNSYLVANIA

CITY           SKY/WX    TMP DP  RH WIND       PRES   REMARKS
ERIE           CLOUDY    66  50  56 VRB5      30.03S
MEADVILLE      CLEAR     60  47  61 CALM      30.06S
FRANKLIN*      CLEAR     57  43  58 W5        30.07S
NEW CASTLE     FAIR      57  51  80 SW3       30.08R
BEAVER COUNTY  NOT AVBL
BUTLER*        PTCLDY    61  45  55 CALM      30.08R
PITTSBURGH INT PTCLDY    65  46  50 W6        30.08R
PITTSBURGH     PTCLDY    66  42  41 NW6       30.07R
INDIANA*       MOCLDY    61  55  82 CALM      30.10R
LATROBE        MOCLDY    63  55  77 SW6       30.08R
WASHINGTON CO* CLEAR     63  45  51 W5        30.11R
$$

PAZ004>006-010>012-017>019-024>028-033>037-041-042-045-046-049>053-260300-
CENTRAL PENNSYLVANIA

CITY           SKY/WX    TMP DP  RH WIND       PRES   REMARKS
BRADFORD       CLEAR     48  47  96 CALM      30.06R
DUBOIS         MOCLDY    60  44  55 NW6       30.06R
CLEARFIELD     PTCLDY    63  50  62 NW7       30.06R
JOHNSTOWN      PTCLDY    58  49  72 SW5       30.08S
ALTOONA        CLEAR     60  53  77 CALM      30.08R
STATE COLLEGE  NOT AVBL
WILLIAMSPORT   PTCLDY    68  49  50 W7        30.01R
SELINSGROVE    PTCLDY    68  51  54 CALM      30.01R
FT INDIANTOWN  CLEAR     71  47  41 SW3       30.01R
CAPITAL CITY   CLEAR     71  46  40 W6        30.02R
HARRISBURG     PTCLDY    75  49  39 W12       30.01R
YORK           PTCLDY    65  52  62 CALM      30.03R
$$

PAZ038>040-043-044-047-048-054-055-060>062-067>071-260300-
EASTERN PENNSYLVANIA

CITY           SKY/WX    TMP DP  RH WIND       PRES   REMARKS
SCRANTON       MOCLDY    66  50  56 N10G22    30.03R
MOUNT POCONO   CLEAR     58  52  80 W3        30.03R
ALLENTOWN      CLEAR     68  51  54 W5        29.99R
QUAKERTOWN*    CLEAR     72  54  53 CALM      30.01R
READING        CLEAR     71  52  50 W7        29.99R
LANCASTER      CLEAR     69  51  52 W8        30.02R
COATESVILLE    CLEAR     70  50  49 CALM      30.04R
POTTSTOWN      CLEAR     72  51  47 VRB3      30.01R
BLUE BELL      PTCLDY    72  55  56 W3        30.01R
DOYLESTOWN     PTCLDY    73  54  51 W3        29.98R
WILLOW GROVE   NOT AVBL
NORTH PHILA    PTCLDY    75  56  51 W8        29.99R
PHILADELPHIA   PTCLDY    78  52  40 W13       29.99R
$$




USA.gov is the U.S. government's official web portal to all federal, state and local government web resources and services.